QPF
0.15 0.17 0.18 0.20 0.21 0.22 0.21 0.20 0.22 0.23 0.21 0.17 0.14 0.14 0.12 0.11 0.12 0.09 0.08 0.09 0.08 0.07 0.06 0.05 0.03 0.02 0.01 0.01 0.01 0.02 0.03 0.03 0.03 0.02 0.02 0.03 0.03 0.04
0.11 0.12 0.12 0.14 0.16 0.18 0.20 0.20 0.18 0.18 0.18 0.16 0.14 0.13 0.12 0.11 0.11 0.09 0.10 0.11 0.08 0.05 0.04 0.03 0.02 0.02 0.01 0.01 0.01 0.01 0.02 0.04 0.05 0.05 0.05 0.05 0.04 0.04
0.07 0.09 0.11 0.12 0.13 0.14 0.15 0.16 0.15 0.13 0.14 0.15 0.12 0.10 0.09 0.09 0.09 0.07 0.07 0.06 0.05 0.04 0.02 0.02 0.01 0.01 0.01 0.00 0.00 0.00 0.01 0.02 0.02 0.03 0.04 0.05 0.05 0.05
0.05 0.05 0.07 0.09 0.09 0.10 0.11 0.11 0.11 0.11 0.11 0.12 0.11 0.10 0.09 0.08 0.09 0.09 0.07 0.05 0.04 0.04 0.02 0.01 0.00 0.00 0.00 0.00 0.00 0.00 0.00 0.01 0.01 0.01 0.01 0.01 0.02 0.03
0.05 0.05 0.05 0.05 0.06 0.06 0.07 0.07 0.08 0.08 0.09 0.09 0.10 0.10 0.10 0.09 0.08 0.07 0.06 0.04 0.02 0.02 0.02 0.01 0.01 0.00 0.00 0.00 0.00 0.00 0.00 0.00 0.00 0.01 0.01 0.01 0.01 0.01
0.05 0.04 0.04 0.04 0.04 0.05 0.05 0.05 0.05 0.06 0.08 0.09 0.10 0.11 0.11 0.09 0.06 0.05 0.05 0.05 0.03 0.02 0.01 0.01 0.01 0.01 0.01 0.01 0.00 0.00 0.00 0.00 0.00 0.00 0.00 0.00 0.00 0.00
0.05 0.04 0.03 0.04 0.04 0.04 0.04 0.04 0.04 0.06 0.07 0.08 0.09 0.10 0.10 0.08 0.06 0.04 0.03 0.03 0.03 0.02 0.03 0.02 0.01 0.01 0.01 0.01 0.00 0.00 0.00 0.00 0.00 0.00 0.00 0.00 0.00 0.00
0.04 0.03 0.03 0.02 0.03 0.03 0.03 0.03 0.03 0.04 0.06 0.05 0.05 0.06 0.06 0.05 0.04 0.03 0.03 0.03 0.03 0.02 0.01 0.01 0.01 0.01 0.01 0.01 0.00 0.00 0.00 0.00 0.00 0.00 0.00 0.00 0.00 0.00
0.03 0.03 0.02 0.02 0.01 0.01 0.01 0.02 0.02 0.02 0.02 0.03 0.04 0.04 0.04 0.03 0.02 0.02 0.03 0.03 0.03 0.02 0.01 0.01 0.01 0.01 0.00 0.00 0.00 0.00 0.00 0.00 0.00 0.00 0.00 0.00 0.00 0.00
0.02 0.02 0.02 0.02 0.01 0.01 0.01 0.02 0.01 0.01 0.01 0.01 0.02 0.02 0.02 0.02 0.02 0.02 0.02 0.03 0.02 0.01 0.01 0.01 0.01 0.01 0.00 0.00 0.00 0.00 0.00 0.00 0.00 0.00 0.00 0.00 0.00 0.00
0.02 0.02 0.01 0.01 0.01 0.01 0.01 0.02 0.02 0.01 0.00 0.00 0.00 0.01 0.01 0.00 0.01 0.01 0.02 0.02 0.03 0.02 0.01 0.01 0.01 0.00 0.00 0.00 0.00 0.00 0.00 0.00 0.00 0.00 0.00 0.00 0.00 0.00
0.02 0.01 0.01 0.00 0.00 0.00 0.02 0.02 0.02 0.02 0.01 0.01 0.01 0.01 0.01 0.01 0.01 0.02 0.03 0.03 0.03 0.03 0.02 0.01 0.01 0.01 0.01 0.01 0.00 0.00 0.00 0.00 0.00 0.00 0.00 0.00 0.00 0.00
0.02 0.01 0.00 0.00 0.00 0.00 0.00 0.01 0.01 0.01 0.02 0.03 0.02 0.02 0.03 0.02 0.02 0.02 0.02 0.03 0.04 0.04 0.02 0.01 0.03 0.03 0.03 0.02 0.01 0.01 0.00 0.00 0.00 0.00 0.00 0.00 0.00 0.00
0.02 0.01 0.00 0.00 0.00 0.00 0.00 0.00 0.00 0.01 0.02 0.02 0.03 0.03 0.03 0.03 0.02 0.02 0.02 0.02 0.03 0.03 0.02 0.02 0.03 0.04 0.03 0.03 0.02 0.01 0.01 0.01 0.01 0.01 0.01 0.00 0.00 0.00
0.01 0.00 0.00 0.00 0.00 0.00 0.00 0.00 0.01 0.01 0.02 0.01 0.02 0.02 0.02 0.02 0.01 0.01 0.01 0.01 0.01 0.01 0.01 0.01 0.02 0.02 0.02 0.02 0.02 0.01 0.01 0.01 0.00 0.00 0.01 0.01 0.01 0.01
0.01 0.00 0.00 0.00 0.00 0.00 0.00 0.01 0.01 0.01 0.01 0.01 0.01 0.01 0.01 0.01 0.01 0.01 0.01 0.02 0.01 0.01 0.00 0.00 0.00 0.01 0.02 0.02 0.02 0.02 0.02 0.01 0.00 0.00 0.00 0.00 0.00 0.00
0.01 0.01 0.00 0.01 0.01 0.01 0.01 0.01 0.01 0.00 0.01 0.01 0.01 0.01 0.01 0.01 0.01 0.01 0.01 0.01 0.01 0.01 0.01 0.00 0.00 0.00 0.01 0.01 0.01 0.01 0.01 0.01 0.00 0.00 0.00 0.00 0.00 0.00
0.00 0.00 0.01 0.01 0.01 0.01 0.01 0.01 0.00 0.01 0.01 0.01 0.01 0.01 0.01 0.01 0.01 0.00 0.00 0.00 0.01 0.00 0.00 0.00 0.00 0.01 0.00 0.00 0.00 0.00 0.00 0.00 0.00 0.00 0.00 0.00 0.00 0.00
0.00 0.01 0.01 0.01 0.00 0.00 0.00 0.00 0.00 0.00 0.00 0.00 0.01 0.01 0.01 0.00 0.00 0.00 0.00 0.00 0.00 0.00 0.00 0.00 0.00 0.00 0.01 0.01 0.00 0.00 0.00 0.00 0.00 0.00 0.00 0.00 0.00 0.00
0.00 0.00 0.00 0.00 0.00 0.00 0.00 0.00 0.00 0.00 0.00 0.00 0.01 0.01 0.00 0.00 0.00 0.00 0.00 0.00 0.00 0.00 0.00 0.00 0.00 0.00 0.00 0.00 0.00 0.00 0.00 0.00 0.00 0.00 0.00 0.00 0.00 0.00
0.00 0.00 0.01 0.01 0.00 0.00 0.00 0.00 0.00 0.00 0.00 0.00 0.01 0.01 0.00 0.00 0.00 0.00 0.00 0.00 0.00 0.00 0.00 0.00 0.00 0.00 0.00 0.00 0.00 0.00 0.00 0.00 0.00 0.00 0.00 0.00 0.00 0.00
0.00 0.00 0.00 0.00 0.01 0.01 0.00 0.00 0.00 0.00 0.00 0.00 0.01 0.01 0.00 0.00 0.00 0.00 0.00 0.00 0.00 0.00 0.00 0.00 0.00 0.00 0.00 0.00 0.00 0.00 0.00 0.00 0.00 0.00 0.00 0.00 0.00 0.00
0.00 0.00 0.00 0.00 0.00 0.01 0.01 0.00 0.00 0.00 0.00 0.00 0.00 0.00 0.00 0.00 0.00 0.00 0.00 0.00 0.00 0.00 0.00 0.00 0.00 0.00 0.00 0.00 0.00 0.00 0.00 0.00 0.00 0.00 0.00 0.00 0.00 0.00
MSLP
1017.42 1017.70 1018.11 1018.64 1019.26 1019.94 1020.65 1021.33 1021.97 1022.53 1023.03 1023.45 1023.81 1024.13 1024.44 1024.76 1025.09 1025.46 1025.84 1026.24 1026.63 1026.99 1027.32 1027.59 1027.81 1027.98 1028.10 1028.20 1028.27 1028.33 1028.36 1028.38 1028.37 1028.33 1028.24 1028.10 1027.92 1027.70
1017.82 1017.98 1018.28 1018.70 1019.23 1019.83 1020.46 1021.09 1021.68 1022.21 1022.67 1023.06 1023.40 1023.71 1024.00 1024.31 1024.64 1025.01 1025.40 1025.81 1026.22 1026.61 1026.96 1027.26 1027.52 1027.72 1027.89 1028.02 1028.13 1028.22 1028.28 1028.32 1028.33 1028.29 1028.20 1028.07 1027.89 1027.68
1018.36 1018.42 1018.60 1018.91 1019.33 1019.83 1020.38 1020.93 1021.46 1021.93 1022.35 1022.71 1023.02 1023.30 1023.58 1023.87 1024.19 1024.54 1024.92 1025.32 1025.72 1026.10 1026.44 1026.75 1027.02 1027.25 1027.44 1027.61 1027.76 1027.88 1027.98 1028.05 1028.09 1028.07 1028.01 1027.90 1027.74 1027.55
1018.99 1018.96 1019.04 1019.25 1019.57 1019.97 1020.43 1020.90 1021.36 1021.78 1022.15 1022.48 1022.76 1023.03 1023.28 1023.55 1023.85 1024.17 1024.51 1024.86 1025.22 1025.55 1025.87 1026.15 1026.40 1026.63 1026.83 1027.02 1027.20 1027.36 1027.50 1027.61 1027.69 1027.71 1027.69 1027.61 1027.49 1027.33
1019.66 1019.57 1019.58 1019.71 1019.94 1020.26 1020.63 1021.03 1021.43 1021.80 1022.14 1022.44 1022.70 1022.95 1023.19 1023.43 1023.69 1023.97 1024.25 1024.54 1024.82 1025.08 1025.32 1025.55 1025.75 1025.95 1026.14 1026.34 1026.53 1026.72 1026.90 1027.06 1027.18 1027.25 1027.27 1027.24 1027.16 1027.05
1020.35 1020.23 1020.19 1020.26 1020.43 1020.68 1021.00 1021.34 1021.69 1022.02 1022.33 1022.61 1022.86 1023.09 1023.32 1023.54 1023.75 1023.97 1024.19 1024.39 1024.58 1024.75 1024.90 1025.04 1025.17 1025.32 1025.47 1025.65 1025.84 1026.05 1026.25 1026.44 1026.60 1026.72 1026.79 1026.81 1026.78 1026.71
1021.04 1020.91 1020.86 1020.90 1021.03 1021.24 1021.51 1021.81 1022.11 1022.42 1022.70 1022.96 1023.20 1023.42 1023.63 1023.83 1024.00 1024.17 1024.31 1024.42 1024.51 1024.57 1024.62 1024.66 1024.71 1024.78 1024.89 1025.03 1025.20 1025.40 1025.61 1025.82 1026.00 1026.16 1026.26 1026.32 1026.33 1026.30
1021.71 1021.60 1021.56 1021.60 1021.72 1021.91 1022.14 1022.40 1022.67 1022.94 1023.19 1023.43 1023.66 1023.86 1024.05 1024.22 1024.36 1024.47 1024.54 1024.58 1024.57 1024.54 1024.48 1024.43 1024.39 1024.38 1024.42 1024.51 1024.64 1024.82 1025.01 1025.22 1025.40 1025.57 1025.69 1025.77 1025.80 1025.80
1022.36 1022.30 1022.29 1022.35 1022.46 1022.63 1022.83 1023.05 1023.28 1023.51 1023.72 1023.93 1024.13 1024.31 1024.47 1024.61 1024.72 1024.78 1024.80 1024.77 1024.69 1024.57 1024.44 1024.30 1024.18 1024.10 1024.07 1024.10 1024.18 1024.31 1024.47 1024.64 1024.80 1024.95 1025.06 1025.13 1025.17 1025.18
1022.99 1022.98 1023.02 1023.10 1023.22 1023.37 1023.54 1023.71 1023.89 1024.05 1024.22 1024.37 1024.52 1024.67 1024.80 1024.91 1024.98 1025.01 1024.99 1024.91 1024.79 1024.62 1024.42 1024.23 1024.05 1023.91 1023.82 1023.78 1023.81 1023.87 1023.97 1024.09 1024.20 1024.30 1024.37 1024.42 1024.43 1024.43
1023.60 1023.64 1023.72 1023.82 1023.94 1024.07 1024.20 1024.31 1024.42 1024.51 1024.60 1024.69 1024.78 1024.88 1024.97 1025.04 1025.09 1025.10 1025.05 1024.96 1024.80 1024.61 1024.39 1024.16 1023.94 1023.75 1023.61 1023.52 1023.48 1023.48 1023.50 1023.54 1023.58 1023.62 1023.63 1023.63 1023.61 1023.57
1024.17 1024.25 1024.35 1024.47 1024.58 1024.67 1024.74 1024.79 1024.82 1024.83 1024.84 1024.86 1024.88 1024.92 1024.97 1025.01 1025.04 1025.03 1024.98 1024.88 1024.72 1024.52 1024.29 1024.05 1023.82 1023.60 1023.42 1023.28 1023.18 1023.10 1023.05 1023.01 1022.97 1022.92 1022.87 1022.81 1022.74 1022.67
1024.67 1024.78 1024.88 1024.99 1025.07 1025.12 1025.14 1025.11 1025.07 1025.00 1024.93 1024.88 1024.84 1024.83 1024.84 1024.85 1024.86 1024.84 1024.79 1024.70 1024.55 1024.36 1024.15 1023.91 1023.67 1023.43 1023.23 1023.04 1022.88 1022.74 1022.61 1022.49 1022.37 1022.25 1022.13 1022.01 1021.90 1021.80
1025.09 1025.18 1025.27 1025.34 1025.38 1025.38 1025.34 1025.26 1025.15 1025.02 1024.89 1024.78 1024.70 1024.65 1024.62 1024.62 1024.61 1024.59 1024.55 1024.46 1024.33 1024.16 1023.96 1023.73 1023.48 1023.24 1023.01 1022.79 1022.58 1022.39 1022.20 1022.01 1021.82 1021.64 1021.46 1021.30 1021.15 1021.02
1025.38 1025.43 1025.47 1025.49 1025.49 1025.44 1025.35 1025.23 1025.08 1024.91 1024.75 1024.61 1024.51 1024.43 1024.39 1024.38 1024.37 1024.35 1024.31 1024.23 1024.11 1023.95 1023.75 1023.53 1023.28 1023.03 1022.78 1022.54 1022.29 1022.05 1021.81 1021.58 1021.35 1021.12 1020.90 1020.70 1020.53 1020.39
1025.52 1025.50 1025.48 1025.44 1025.39 1025.31 1025.19 1025.05 1024.88 1024.72 1024.56 1024.42 1024.31 1024.24 1024.20 1024.18 1024.17 1024.15 1024.10 1024.03 1023.91 1023.75 1023.55 1023.32 1023.07 1022.81 1022.55 1022.28 1022.01 1021.74 1021.47 1021.21 1020.95 1020.70 1020.47 1020.26 1020.08 1019.93
1025.51 1025.40 1025.31 1025.22 1025.13 1025.03 1024.90 1024.77 1024.62 1024.48 1024.35 1024.24 1024.16 1024.11 1024.07 1024.06 1024.04 1024.01 1023.96 1023.87 1023.74 1023.56 1023.35 1023.11 1022.85 1022.58 1022.30 1022.02 1021.73 1021.45 1021.17 1020.90 1020.64 1020.39 1020.15 1019.95 1019.77 1019.63
1025.34 1025.16 1025.01 1024.88 1024.77 1024.66 1024.55 1024.45 1024.35 1024.25 1024.17 1024.10 1024.06 1024.03 1024.01 1024.00 1023.97 1023.93 1023.85 1023.74 1023.58 1023.38 1023.15 1022.89 1022.62 1022.33 1022.04 1021.75 1021.46 1021.18 1020.91 1020.64 1020.39 1020.15 1019.93 1019.73 1019.56 1019.42
1025.07 1024.84 1024.65 1024.50 1024.38 1024.29 1024.22 1024.16 1024.11 1024.08 1024.05 1024.03 1024.02 1024.01 1024.00 1023.98 1023.93 1023.86 1023.75 1023.60 1023.41 1023.18 1022.92 1022.64 1022.35 1022.05 1021.76 1021.47 1021.18 1020.91 1020.65 1020.40 1020.17 1019.95 1019.74 1019.56 1019.39 1019.25
1024.75 1024.49 1024.29 1024.14 1024.04 1023.99 1023.96 1023.95 1023.97 1023.98 1024.00 1024.02 1024.03 1024.03 1024.01 1023.96 1023.88 1023.77 1023.61 1023.42 1023.19 1022.93 1022.65 1022.35 1022.04 1021.74 1021.44 1021.16 1020.88 1020.63 1020.38 1020.15 1019.94 1019.73 1019.54 1019.37 1019.20 1019.04
1024.41 1024.17 1023.99 1023.87 1023.80 1023.79 1023.82 1023.87 1023.92 1023.98 1024.03 1024.07 1024.08 1024.06 1024.01 1023.92 1023.80 1023.63 1023.43 1023.19 1022.92 1022.63 1022.32 1022.01 1021.70 1021.39 1021.10 1020.82 1020.56 1020.32 1020.09 1019.87 1019.67 1019.47 1019.29 1019.11 1018.94 1018.76
1024.11 1023.91 1023.77 1023.69 1023.68 1023.72 1023.79 1023.88 1023.98 1024.06 1024.12 1024.15 1024.14 1024.09 1023.99 1023.85 1023.67 1023.44 1023.19 1022.91 1022.60 1022.29 1021.97 1021.64 1021.33 1021.03 1020.74 1020.47 1020.21 1019.97 1019.75 1019.54 1019.34 1019.15 1018.96 1018.77 1018.57 1018.37
1023.83 1023.69 1023.61 1023.59 1023.64 1023.72 1023.84 1023.96 1024.08 1024.17 1024.23 1024.23 1024.19 1024.09 1023.94 1023.74 1023.50 1023.23 1022.92 1022.61 1022.28 1021.95 1021.61 1021.29 1020.97 1020.67 1020.38 1020.11 1019.85 1019.61 1019.38 1019.16 1018.95 1018.74 1018.54 1018.33 1018.11 1017.88
Thickness
5630 5630 5631 5631 5631 5631 5630 5628 5623 5616 5610 5605 5604 5602 5601 5600 5596 5596 5593 5589 5586 5583 5580 5577 5574 5572 5569 5566 5563 5561 5559 5556 5553 5551 5549 5546 5544 5542
5619 5620 5621 5622 5621 5621 5621 5620 5619 5616 5607 5600 5597 5595 5592 5591 5587 5585 5583 5579 5576 5573 5570 5567 5564 5562 5559 5556 5553 5551 5548 5545 5543 5541 5539 5536 5534 5532
5608 5609 5610 5610 5611 5611 5611 5610 5609 5606 5599 5591 5588 5585 5582 5581 5578 5576 5573 5570 5567 5563 5560 5558 5555 5552 5550 5547 5544 5541 5539 5536 5534 5531 5529 5527 5525 5523
5597 5599 5599 5600 5599 5599 5599 5599 5598 5596 5592 5585 5579 5576 5573 5571 5569 5566 5565 5563 5559 5554 5551 5549 5546 5544 5541 5538 5535 5532 5530 5528 5525 5523 5521 5519 5516 5514
5585 5587 5588 5589 5588 5587 5587 5588 5587 5586 5583 5579 5573 5568 5565 5563 5560 5559 5557 5553 5552 5547 5543 5540 5538 5535 5533 5530 5527 5525 5522 5520 5518 5516 5514 5511 5509 5507
5573 5575 5576 5577 5576 5576 5576 5576 5576 5574 5571 5569 5565 5561 5558 5554 5553 5552 5549 5546 5545 5543 5538 5535 5531 5529 5526 5523 5521 5519 5516 5514 5512 5510 5508 5506 5504 5502
5562 5562 5562 5562 5562 5563 5565 5564 5564 5563 5562 5560 5557 5554 5551 5547 5546 5545 5544 5541 5538 5536 5534 5531 5528 5525 5522 5519 5516 5514 5511 5509 5507 5505 5503 5501 5499 5497
5551 5551 5551 5551 5550 5550 5550 5550 5551 5552 5551 5550 5549 5546 5542 5541 5539 5538 5537 5536 5533 5531 5529 5528 5526 5523 5521 5518 5514 5510 5507 5505 5503 5501 5500 5498 5496 5494
5540 5541 5542 5540 5541 5541 5540 5539 5539 5538 5538 5540 5539 5537 5534 5533 5532 5530 5528 5528 5527 5525 5524 5523 5521 5519 5517 5515 5510 5506 5503 5501 5500 5498 5497 5495 5494 5492
5529 5530 5531 5530 5530 5531 5534 5533 5532 5530 5530 5530 5528 5527 5526 5524 5523 5522 5521 5520 5519 5518 5516 5517 5517 5516 5515 5511 5506 5503 5501 5499 5497 5496 5495 5494 5492 5491
5521 5520 5521 5521 5518 5521 5525 5525 5524 5521 5519 5519 5518 5517 5515 5515 5514 5516 5516 5517 5516 5515 5512 5513 5513 5513 5512 5511 5506 5502 5500 5498 5497 5495 5494 5493 5491 5489
5513 5512 5509 5510 5510 5513 5517 5518 5518 5516 5516 5514 5511 5510 5510 5509 5507 5508 5511 5511 5511 5510 5508 5508 5509 5509 5509 5509 5507 5504 5501 5499 5497 5496 5494 5492 5490 5489
5510 5509 5504 5502 5504 5506 5508 5510 5508 5508 5511 5511 5510 5509 5507 5506 5505 5504 5504 5506 5506 5505 5505 5504 5504 5505 5505 5505 5506 5505 5503 5502 5500 5498 5496 5493 5491 5488
5503 5502 5498 5496 5498 5499 5501 5500 5501 5503 5508 5508 5507 5506 5505 5504 5502 5501 5499 5499 5498 5499 5498 5499 5500 5501 5502 5502 5504 5505 5504 5502 5501 5500 5498 5495 5493 5490
5495 5491 5491 5492 5493 5495 5494 5496 5498 5503 5504 5504 5503 5502 5501 5499 5498 5497 5497 5496 5497 5498 5498 5497 5498 5499 5500 5501 5503 5504 5503 5503 5502 5500 5499 5498 5496 5494
5492 5489 5489 5490 5492 5491 5493 5496 5498 5498 5498 5499 5498 5498 5497 5497 5497 5498 5498 5498 5499 5500 5498 5497 5496 5497 5499 5501 5502 5502 5503 5503 5502 5501 5500 5499 5498 5498
5489 5493 5495 5495 5495 5495 5496 5495 5496 5496 5495 5495 5495 5495 5495 5496 5496 5497 5496 5497 5499 5500 5500 5500 5500 5499 5499 5500 5502 5503 5503 5502 5502 5501 5498 5500 5501 5500
5488 5494 5495 5495 5496 5496 5495 5495 5495 5494 5494 5493 5494 5494 5494 5494 5496 5496 5497 5497 5498 5499 5501 5502 5502 5503 5504 5506 5501 5503 5503 5503 5502 5501 5500 5500 5501 5501
5493 5495 5495 5495 5495 5496 5496 5496 5495 5494 5492 5493 5493 5493 5494 5494 5495 5496 5497 5497 5499 5500 5501 5502 5502 5502 5502 5504 5504 5499 5501 5501 5501 5502 5502 5502 5501 5501
5498 5498 5497 5497 5497 5497 5497 5496 5495 5495 5494 5494 5493 5494 5494 5495 5496 5497 5497 5496 5497 5499 5501 5503 5503 5502 5501 5500 5502 5503 5500 5501 5501 5500 5501 5502 5502 5500
5501 5500 5500 5499 5499 5498 5497 5496 5496 5495 5495 5494 5495 5494 5495 5496 5497 5498 5498 5495 5495 5499 5501 5502 5501 5496 5498 5500 5502 5505 5505 5500 5499 5497 5498 5499 5500 5501
5503 5503 5502 5501 5500 5500 5500 5499 5499 5498 5497 5497 5497 5497 5497 5497 5498 5498 5499 5500 5500 5501 5502 5503 5502 5502 5502 5502 5503 5504 5504 5503 5501 5498 5496 5495 5495 5496
5507 5506 5506 5505 5504 5503 5504 5503 5501 5501 5500 5500 5500 5499 5499 5499 5499 5500 5500 5501 5502 5503 5503 5503 5504 5504 5504 5504 5504 5504 5504 5504 5504 5503 5501 5497 5493 5491